Location: Yellowknife
(62.4500°N, 114.3500°W)
Time: 21:35:43
(UTC-06:00)

OTV 5 (USA 277) - Visible Passes

Search period start: 20 April 2018 00:00
Search period end: 30 April 2018 00:00
Orbit: 307 x 321 km, 54.5° (Epoch: 20 April)

Date Brightness Start Highest point End Pass type
(mag) Time Alt. Az. Time Alt. Az. Time Alt. Az.
20 Apr ? 23:20:27 10° SSW 23:21:19 14° S 23:21:19 14° S visible
21 Apr ? 23:33:33 10° SW 23:34:43 15° SSW 23:34:43 15° SSW visible
22 Apr ? 23:46:49 10° SW 23:47:55 15° SSW 23:47:55 15° SSW visible
23 Apr ? 22:26:31 10° SSW 22:28:16 16° S 22:30:00 10° SE visible
24 Apr ? 00:00:18 10° SW 00:01:00 12° SSW 00:01:00 12° SSW visible
24 Apr ? 22:39:42 10° SW 22:41:29 16° S 22:43:10 11° SE visible
25 Apr ? 22:53:03 10° SW 22:54:43 15° S 22:56:06 11° SSE visible
26 Apr ? 23:06:39 10° SW 23:07:55 13° SSW 23:09:01 11° S visible
